www.pogodaiklimat.ru

Погода и климат >> Архив погоды >> Норвегия >> Кёутукейну


ПОГОДА в Кёутукейну

  • Прогноз погоды в Кёутукейну
  • Монитор погоды в Кёутукейну

АРХИВ ПОГОДЫ в Кёутукейну

Время (UTC), дата Ветер
(напр.,м/с)
 
Видим.   Явления Облачность Т
(С)
Тd
(С)
f
(%)
Тe
(С)
Тes
(С)
Комфортность P
(гПа)
Po
(гПа)
Тmin
(С)
Tmax
(С)
R
(мм)
R24
(мм)
S
(см)
00 12.06 СЗ 3 60 км 8/8 600 м
[Sc]
+2.6 +0.2 84 -2 -2 1031.6 993.1
06 12.06 СВ 3 65 км 8/8 600 м
[Sc As trans]
+6.2 -2.1 55 +4 +4 1030.6 992.7 +2.0 +6.7
09 12.06 СВ 3 65 км 6/4 600 м
[Sc Cs]
+9.0 -1.7 47 +7 +12 1029.7 992.2
12 12.06 ЮВ 3 65 км 9/4 1000 м
[Cu hum Cs]
+11.7 -1.1 41 +10 +15 1028.1 991.0
15 12.06 Ю 5 65 км 9/4 1000 м
[Cu hum Cs]
+12.7 -1.2 38 +11 +12 1026.7 989.7
18 12.06 ЮВ 3 60 км 8/5 600 м
[Sc Ac As]
+12.1 -1.1 40 +11 +11 1025.6 988.6 +6.1 +13.4
00 13.06 Ю 3 60 км 9/6 600 м
[Sc Ac As]
+8.8 +0.8 57 +7 +7 1025.7 988.3
06 13.06 Ю 5 65 км 8/0 2000 м
[Ac As Cs]
+11.8 +3.3 56 +10 +11 1024.8 987.8 +7.9 +12.1
09 13.06 Ю 5 65 км 6/4 1000 м
[Cu med, cong Cs]
+16.1 +2.5 40 +15 +18 1023.5 987.1
12 13.06 Ю 3 65 км 6/6 1000 м
[Cu Sc]
+17.0 +1.9 36 +17 +20 1022.8 986.5
15 13.06 Ю 3 65 км 8/6 1000 м
[Cu Sc Ac trans]
+17.4 +1.4 34 +17 +19 1021.9 985.7
18 13.06 СЗ 3 65 км 6/5 600 м
[Sc Ac trans]
+18.0 +1.9 34 +18 +19 1020.9 984.8 +11.8 +18.6
00 14.06 С 3 60 км ясно +7.4 +3.5 76 +5 +5 1023.5 986.0
06 14.06 С 1 60 км ясно +13.1 +4.0 54 +14 +20 1019.9 983.2 +7.0 +18.0
09 14.06 С 3 55 км ясно +17.1 +4.8 44 +17 +26 1018.1 982.0
12 14.06 С 5 55 км ясно +18.6 +1.6 32 +18 +24 1017.0 981.1
15 14.06 С 7 55 км 1/0
[]
+15.6 -1.4 31 +14 +16 1017.0 980.7
18 14.06 С 7 55 км ясно +12.6 -2.4 35 +10 +11 1018.0 981.3 +12.6 +18.7
00 15.06 С 3 55 км ясно +4.4 +1.1 79 +1 +1 1020.0 982.2
06 15.06 С 3 60 км ясно +10.5 +2.4 57 +9 +13 1017.7 980.8 +3.8 +12.8
09 15.06 С 5 55 км ясно +16.2 +2.3 39 +15 +21 1015.8 979.7
12 15.06 СЗ 5 55 км ясно +19.5 +1.5 30 +20 +25 1014.2 978.5
15 15.06 С 5 55 км ясно +20.4 +1.8 29 +21 +23 комфорт 1013.2 977.7
18 15.06 СЗ 5 55 км 3/0
[Ci fib]
+18.7 +0.3 29 +18 +19 1012.5 976.8 +10.3 +20.7
00 16.06 Ю 1 55 км 1/0
[]
+7.9 +2.6 69 +7 +7 1013.9 976.8
06 16.06 С 5 60 км 4/0 2000 м
[Ac As]
+11.5 +3.3 57 +9 +11 1013.8 977.2 +7.6 +18.7
09 16.06 С 5 60 км 3/1 1000 м
[Cu hum Ci fib]
+13.5 +3.9 52 +12 +16 1014.0 977.6
12 16.06 СЗ 5 60 км 3/0
[]
+14.4 +2.3 44 +13 +18 1013.5 977.2
15 16.06 СЗ 5 60 км ясно +14.2 +2.2 44 +13 +16 1013.2 976.9
18 16.06 СЗ 5 60 км ясно +14.2 +2.2 44 +13 +13 1012.9 976.6 +10.1 +15.6
06 17.06 С 3 60 км ясно +12.2 +1.0 46 +11 +16 1010.0 973.6 +3.9 +14.3
09 17.06 ЮВ 3 60 км 3/1 1000 м
[Cu hum Ac lent]
+15.2 +1.7 40 +15 +21 1008.3 972.3
12 17.06 С 5 60 км 3/1 1000 м
[Cu hum Ci fib]
+18.2 +4.1 39 +18 +23 1007.2 971.6
15 17.06 С 7 60 км 3/3 1000 м
[Cu hum]
+18.3 +1.4 32 +18 +19 1006.9 971.3
18 17.06 С 7 60 км 4/0 2000 м
[Ac As]
+15.1 +1.3 39 +13 +14 1008.0 972.0 +11.8 +19.9
00 18.06 С 3 60 км 8/0
[Ac As]
+7.2 +1.3 66 +5 +5 1010.8 973.7
06 18.06 штиль 0 60 км 9/9 600 м
[Cu Sc]
+10.5 +3.3 61 +10 +11 1009.7 973.1 +6.1 +15.1
09 18.06 ЮВ 3 60 км 9/6 600 м
[Cu Sc Ac und]
+14.0 +2.3 45 +13 +15 1008.4 972.3
12 18.06 ЮВ 3 55 км 10/3 600 м
[Sc As op]
+13.6 +1.6 44 +13 +14 1018.3 981.8
15 18.06 ЮВ 3 50 км {дождь} 10/8 600 м
[Sc As op]
+10.3 +4.7 68 +8 +9 1008.2 971.6
18 18.06 ЮВ 1 25 км слаб. дождь 10/0 600 м
[As op]
+8.8 +6.6 86 +8 +8 1007.5 970.7 +8.6 +15.1 3

 

Местоположение метеостанции Кёутукейну (Норвегия): широта 69.00 долгота 23.03 высота над уровнем моря 307 м.

В архиве по умолчанию представлена погода в Кёутукейну за последнюю неделю. Архивные данные за месяц целиком и за предыдущие месяцы, начиная с января 2011 года, Вы можете получить, выбрав интересующий диапазон дат из раскрывающегося списка и нажав кнопку "Ввод!".


*Определитесь, кто Вы:
робот инопланетянин человек

Внимание! Время в таблицах - всемирное. Для получения местного времени необходимо прибавить поправку, которая равна 1 ч.

Смотрите также архив погоды в соседних городах и на ближайших метеорологических станциях:

Погода в Наккала (Финляндия) (50 км)
Погода в Каресуандо (Швеция) (65 км)
Погода в Суоловуопми-Лулит (Норвегия) (67 км)
Погода в Суовддатмохкки (Норвегия) (69 км)
Погода в Наймакке (Швеция) (70 км)
Погода на Саане (Финляндия) (87 км)
Погода в Килписйарви (Финляндия) (89 км)
Погода в Искорасе (Норвегия) (98 км)
Погода в Инари Анджели (Финляндия) (109 км)
Погода в Альта аэропорту (Норвегия) (110 км)

Пояснения к столбцам:

Ветер - указаны скорость ветра в м/с - средняя за 10 мин, порывы в срок и между сроками (в фигурных скобках) и направление, откуда дует ветер: С - северный, СВ - северо-восточный, В - восточный, ЮВ - юго-восточный, Ю - южный, ЮЗ - юго-западный, З - западный, СЗ - северо-западный.
Видимость - горизонтальная дальность видимости в метрах или километрах. При видимости от 1 до 10 км при отсутствии осадков обычно наблюдается дымка, при ухудшении видимости до 1 км и менее - туман. В сухую погоду видимость может ухудшаться дымом, пылью или мглою.
Явления - указаны атмосферные явления, наблюдавшиеся в срок или в последний час перед сроком; фигурными скобками обозначены явления, наблюдавшиеся между сроками (за 1-3 часа до срока); квадратными скобками обозначены град или гололедные отложения с указанием их диаметра в мм.
Облачность - указаны через наклонную черту общая и нижняя облачность в баллах и высота нижней границы облаков в метрах; квадратными скобками обозначены формы облаков: Ci - перистые, Cs - перисто-слоистые, Cc - перисто-кучевые, Ac - высококучевые, As - высокослоистые, Sc - слоисто-кучевые, Ns - слоисто-дождевые, Cu - кучевые, Cb - кучево-дождевые. Подробнее классификацию облаков см. в Атласе облаков (PDF).
T - Температура воздуха - температура, измеренная на высоте 2 м над землей.
Td - Температура точки росы - температура, при понижении до которой содержащийся в воздухе водяной пар достигнет насыщения.
f - Относительная влажность воздуха - влажноcть воздуха, измеренная на высоте 2 м над землей.
Te - Эффективная температура - температура, которую ощущает одетый по сезону человек в тени. Характеристика душности погоды. При расчете учитывается влияние влажности воздуха и скорости ветра на теплоощущения человека.
Tes - Эффективная температура на солнце - температура, которую ощущает человек, с поправкой на солнечный нагрев. Характеристика знойности погоды. Зависит от высоты солнца над горизонтом, облачности и скорости ветра. Ночью, в пасмурную погоду, а также при ветре 12 м/с и более поправка равна нулю.
P - Атмосферное давление - приведенное к уровню моря атмосферное давление.
Po - Атмосферное давление - измеренное на уровне метеостанции атмосферное давление.
Tmin - Минимальная температура - минимум температуры воздуха на высоте 2 м над землей.
Tmax - Максимальная температура - максимум температуры воздуха на высоте 2 м над землей.
R - Количество осадков - Количество выпавших осадков за период времени, мм. При наведении курсора мыши на число - период времени, за который выпало указанное количество осадков.
R24 - Количество осадков - Количество выпавших осадков за 24 часа, мм.
S - Снежный покров - Высота снежного покрова, см. При наведении курсора мыши на число - состояние снежного покрова и степень покрытия местности в баллах.